CW7911 Weather Reports


time (UTC)temp
C
wind
direction
speed
KPH
gust
KPH
rain 1hr
cm
rain 24hr
cm
rain mn
cm
humidity
%
barometer
mb
20260508151601 10 274 0.0 0.0 0.00 0.00 0.00 38 1006.0
20260508151058 10 274 0.0 0.0 0.00 0.00 0.00 39 1006.1
20260508150555 10 274 0.0 4.8 0.00 0.00 0.00 39 1006.1
20260508150051 10 274 1.6 4.8 0.00 0.00 0.00 38 1006.1
20260508145548 11 274 0.0 6.4 0.00 0.00 0.00 37 1006.2
20260508145044 10 274 0.0 3.2 0.00 0.00 0.00 35 1006.2
20260508144542 10 274 0.0 1.6 0.00 0.00 0.00 36 1006.0
20260508144039 11 274 0.0 3.2 0.00 0.00 0.00 33 1006.0
20260508143537 12 274 0.0 0.0 0.00 0.00 0.00 33 1006.0
20260508143033 11 274 0.0 6.4 0.00 0.00 0.00 35 1005.9
20260508142530 12 274 6.4 11.3 0.00 0.00 0.00 31 1005.8
20260508142026 12 274 3.2 14.5 0.00 0.00 0.00 30 1006.2
20260508141523 12 274 0.0 6.4 0.00 0.00 0.00 31 1006.1
20260508141021 11 274 3.2 3.2 0.00 0.00 0.00 36 1005.9
20260508140518 11 274 3.2 11.3 0.00 0.00 0.00 33 1006.2
20260508140014 11 274 4.8 6.4 0.00 0.00 0.00 34 1006.4
20260508135510 11 274 1.6 3.2 0.00 0.00 0.00 36 1006.4
20260508135006 11 274 4.8 9.7 0.00 0.00 0.00 36 1006.3
20260508134503 11 274 1.6 11.3 0.00 0.00 0.00 36 1006.5
20260508134000 11 274 0.0 0.0 0.00 0.00 0.00 35 1006.5
20260508133457 11 274 0.0 1.6 0.00 0.00 0.00 37 1006.6
20260508132954 11 274 0.0 3.2 0.00 0.00 0.00 37 1006.4
20260508132452 10 274 1.6 4.8 0.00 0.00 0.00 40 1006.6
20260508131948 10 274 4.8 9.7 0.00 0.00 0.00 41 1006.5
20260508131444 10 274 0.0 1.6 0.00 0.00 0.00 44 1006.4
20260508130941 10 274 3.2 4.8 0.00 0.00 0.00 41 1006.6
20260508130438 9 274 1.6 3.2 0.00 0.00 0.00 43 1006.7
20260508125933 9 274 0.0 4.8 0.00 0.00 0.00 43 1006.7
20260508125430 10 274 4.8 9.7 0.00 0.00 0.00 43 1006.9
20260508124928 8 274 0.0 0.0 0.00 0.00 0.00 44 1006.6
20260508124425 9 274 3.2 4.8 0.00 0.00 0.00 43 1006.8
20260508123923 9 274 0.0 0.0 0.00 0.00 0.00 45 1006.8
20260508123421 10 274 0.0 4.8 0.00 0.00 0.00 43 1006.7
20260508122917 10 274 0.0 3.2 0.00 0.00 0.00 43 1006.9
20260508122414 9 274 0.0 0.0 0.00 0.00 0.00 47 1006.8
20260508121911 8 274 1.6 3.2 0.00 0.00 0.00 45 1006.8
20260508121410 8 274 1.6 4.8 0.00 0.00 0.00 45 1006.6
20260508120907 8 274 1.6 4.8 0.00 0.00 0.00 46 1006.7
20260508120405 9 274 1.6 4.8 0.00 0.00 0.00 45 1006.7
20260508115902 8 274 1.6 3.2 0.00 0.00 0.00 48 1006.7
20260508115400 8 274 0.0 0.0 0.00 0.00 0.00 51 1006.9
20260508114855 7 274 0.0 0.0 0.00 0.00 0.00 54 1006.6
20260508114353 7 274 0.0 1.6 0.00 0.00 0.00 59 1006.7
20260508113849 6 274 0.0 0.0 0.00 0.00 0.00 61 1006.7
20260508113348 6 274 1.6 1.6 0.00 0.00 0.00 66 1006.7
20260508112844 6 274 0.0 0.0 0.00 0.00 0.00 70 1006.5
20260508112341 5 274 0.0 0.0 0.00 0.00 0.00 72 1006.6
20260508111837 4 274 0.0 0.0 0.00 0.00 0.00 75 1006.5
20260508111335 4 274 0.0 0.0 0.00 0.00 0.00 77 1006.6
20260508110832 3 274 0.0 0.0 0.00 0.00 0.00 77 1006.5
20260508110329 3 274 0.0 0.0 0.00 0.00 0.00 78 1006.6
20260508105829 2 274 0.0 0.0 0.00 0.00 0.00 83 1006.4
20260508105326 2 274 0.0 0.0 0.00 0.00 0.00 87 1006.4
20260508104823 1 274 0.0 0.0 0.00 0.00 0.00 88 1006.5
20260508104320 1 274 0.0 0.0 0.00 0.00 0.00 89 1006.5
20260508103817 1 274 0.0 0.0 0.00 0.00 0.00 90 1006.6
20260508103314 0 274 0.0 0.0 0.00 0.00 0.00 91 1006.3
20260508102812 0 274 0.0 0.0 0.00 0.00 0.00 91 1006.2
20260508102309 0 274 0.0 0.0 0.00 0.00 0.00 91 1006.2
20260508101806 0 274 0.0 0.0 0.00 0.00 0.00 91 1006.3
20260508101304 0 274 0.0 1.6 0.00 0.00 0.00 91 1006.2
20260508100801 0 274 0.0 0.0 0.00 0.00 0.00 91 1006.0
20260508100300 0 274 0.0 1.6 0.00 0.00 0.00 91 1006.1
20260508095755 0 274 0.0 0.0 0.00 0.00 0.00 91 1006.1
20260508095253 -1 274 0.0 0.0 0.00 0.00 0.00 91 1006.1
20260508094749 -1 274 0.0 0.0 0.00 0.00 0.00 91 1005.8
20260508094247 -1 274 0.0 0.0 0.00 0.00 0.00 91 1005.8
20260508093743 -1 274 0.0 1.6 0.00 0.00 0.00 91 1005.9
20260508093241 -1 274 0.0 0.0 0.00 0.00 0.00 90 1005.7
20260508092738 -1 274 0.0 0.0 0.00 0.00 0.00 90 1005.8
20260508092236 -1 274 0.0 1.6 0.00 0.00 0.00 90 1005.7
20260508091734 -1 274 0.0 1.6 0.00 0.00 0.00 90 1005.6
20260508091230 -1 274 0.0 0.0 0.00 0.00 0.00 90 1005.5
20260508090728 -1 274 0.0 0.0 0.00 0.00 0.00 90 1005.2
20260508090226 -1 274 0.0 0.0 0.00 0.00 0.00 90 1005.3
20260508085721 0 274 0.0 0.0 0.00 0.00 0.00 90 1005.4
20260508085219 0 274 0.0 0.0 0.00 0.00 0.00 90 1005.2
20260508084715 0 274 0.0 0.0 0.00 0.00 0.00 89 1005.1
20260508084213 0 274 0.0 0.0 0.00 0.00 0.00 89 1005.1
20260508083710 0 274 0.0 0.0 0.00 0.00 0.00 89 1005.3
20260508083207 0 274 0.0 0.0 0.00 0.00 0.00 88 1005.0
20260508082702 0 274 0.0 0.0 0.00 0.00 0.00 88 1005.1
20260508082200 0 274 0.0 0.0 0.00 0.00 0.00 87 1005.2
20260508081657 0 274 0.0 0.0 0.00 0.00 0.00 88 1005.2
20260508081153 0 274 0.0 0.0 0.00 0.00 0.00 88 1005.2
20260508080651 0 274 0.0 0.0 0.00 0.00 0.00 88 1005.1
20260508080149 0 274 0.0 0.0 0.00 0.00 0.00 88 1005.3
20260508075645 0 274 0.0 0.0 0.00 0.00 0.00 88 1005.0
20260508075142 0 274 0.0 0.0 0.00 0.00 0.00 87 1005.0
20260508074640 0 274 0.0 0.0 0.00 0.00 0.00 87 1004.9
20260508074137 0 274 0.0 0.0 0.00 0.00 0.00 86 1005.1
20260508073634 0 274 0.0 0.0 0.00 0.00 0.00 86 1005.0
20260508073132 0 274 0.0 0.0 0.00 0.00 0.00 86 1005.1
20260508072627 0 274 0.0 0.0 0.00 0.00 0.00 86 1004.8
20260508072124 0 274 0.0 0.0 0.00 0.00 0.00 85 1004.9
20260508071622 0 274 0.0 0.0 0.00 0.00 0.00 85 1005.0
20260508071120 0 274 0.0 0.0 0.00 0.00 0.00 85 1005.0
20260508070617 0 274 0.0 0.0 0.00 0.00 0.00 84 1005.1
20260508070115 0 274 0.0 0.0 0.00 0.00 0.00 84 1005.1
20260508065607 0 274 0.0 0.0 0.00 0.00 0.00 84 1005.0
20260508065104 0 274 0.0 0.0 0.00 0.00 0.00 83 1004.9
20260508064602 0 274 0.0 0.0 0.00 0.00 0.00 83 1005.2
20260508064100 0 274 0.0 0.0 0.00 0.00 0.00 82 1005.1
20260508063557 0 274 0.0 0.0 0.00 0.00 0.00 81 1005.1
20260508063055 0 274 0.0 0.0 0.00 0.00 0.00 82 1005.0
20260508062552 1 274 0.0 0.0 0.00 0.00 0.00 82 1005.2
20260508062048 1 274 0.0 0.0 0.00 0.00 0.00 83 1005.3
20260508061546 1 274 0.0 0.0 0.00 0.00 0.00 82 1005.4
20260508061043 1 274 0.0 0.0 0.00 0.00 0.00 82 1005.3
20260508060540 1 274 0.0 0.0 0.00 0.00 0.00 81 1005.3
20260508060037 1 274 0.0 0.0 0.00 0.00 0.00 82 1005.5
20260508055532 1 274 0.0 0.0 0.00 0.00 0.00 81 1005.5
20260508055030 1 274 0.0 0.0 0.00 0.00 0.00 82 1005.2
20260508054526 1 274 0.0 0.0 0.00 0.00 0.00 82 1005.4
20260508054024 1 274 0.0 0.0 0.00 0.00 0.00 82 1005.5
20260508053520 1 274 0.0 0.0 0.00 0.00 0.00 81 1005.6
20260508053019 1 274 0.0 0.0 0.00 0.00 0.00 81 1005.6
20260508052516 1 274 0.0 0.0 0.00 0.00 0.00 81 1005.7
20260508052012 1 274 0.0 0.0 0.00 0.00 0.00 81 1005.9
20260508051509 1 274 0.0 0.0 0.00 0.00 0.00 82 1005.8
20260508051004 1 274 0.0 0.0 0.00 0.00 0.00 82 1005.8
20260508050501 1 274 0.0 0.0 0.00 0.00 0.00 82 1005.9
20260508045957 1 274 0.0 0.0 0.00 0.00 0.00 82 1005.9
20260508045454 1 274 0.0 0.0 0.00 0.00 0.00 81 1005.5
20260508044952 1 274 0.0 0.0 0.00 0.00 0.00 81 1005.9
20260508044449 1 274 0.0 0.0 0.00 0.00 0.00 81 1005.9
20260508043944 2 274 0.0 0.0 0.00 0.00 0.00 81 1005.8
20260508043442 2 274 0.0 0.0 0.00 0.00 0.00 80 1005.8
20260508042937 2 274 0.0 0.0 0.00 0.00 0.00 80 1005.9
20260508042436 2 274 0.0 0.0 0.00 0.00 0.00 78 1005.8
20260508041932 2 274 0.0 0.0 0.00 0.00 0.00 76 1006.3
20260508041429 2 274 0.0 0.0 0.00 0.00 0.00 77 1006.1
20260508040926 2 274 0.0 0.0 0.00 0.00 0.00 77 1006.0
20260508040423 2 274 0.0 0.0 0.00 0.00 0.00 78 1006.2
20260508035920 2 274 0.0 0.0 0.00 0.03 0.03 77 1006.1
20260508035411 3 274 0.0 0.0 0.00 0.03 0.03 76 1006.1
20260508034908 3 274 0.0 0.0 0.00 0.03 0.03 75 1006.1
20260508034406 3 274 0.0 0.0 0.00 0.03 0.03 75 1006.0
20260508033902 3 274 0.0 0.0 0.00 0.03 0.03 75 1006.0
20260508033401 3 274 0.0 0.0 0.00 0.03 0.03 74 1006.0
20260508032858 3 274 0.0 0.0 0.00 0.03 0.03 74 1005.8
20260508032355 3 274 0.0 0.0 0.00 0.03 0.03 75 1006.0
20260508031852 3 274 0.0 0.0 0.00 0.03 0.03 74 1006.1
20260508031349 3 274 0.0 0.0 0.00 0.03 0.03 73 1005.8
20260508030844 3 274 0.0 0.0 0.00 0.03 0.03 74 1006.0
20260508030342 3 274 0.0 0.0 0.00 0.03 0.03 74 1006.1
20260508025838 4 274 0.0 0.0 0.00 0.03 0.03 73 1005.9
20260508025336 4 274 0.0 0.0 0.00 0.03 0.03 72 1005.9
20260508024832 4 274 0.0 0.0 0.00 0.03 0.03 71 1005.8
20260508024328 4 274 0.0 0.0 0.00 0.03 0.03 70 1005.8
20260508023825 5 274 0.0 0.0 0.00 0.03 0.03 69 1005.8
20260508023317 5 274 0.0 0.0 0.00 0.03 0.03 68 1005.7
20260508022813 5 274 0.0 0.0 0.00 0.03 0.03 68 1005.8
20260508022309 5 274 0.0 0.0 0.00 0.03 0.03 67 1005.7
20260508021807 5 274 0.0 0.0 0.00 0.03 0.03 66 1005.4
20260508021302 5 274 0.0 0.0 0.00 0.03 0.03 67 1005.2
20260508020758 5 274 0.0 0.0 0.00 0.03 0.03 67 1005.7
20260508020257 5 274 0.0 0.0 0.00 0.03 0.03 67 1005.5
20260508015753 5 274 0.0 0.0 0.00 0.03 0.03 67 1005.5
20260508015251 5 274 0.0 0.0 0.00 0.03 0.03 66 1005.5
20260508014747 5 274 0.0 0.0 0.00 0.03 0.03 66 1005.4
20260508014244 5 274 0.0 0.0 0.00 0.03 0.03 66 1005.4
20260508013740 5 274 0.0 0.0 0.00 0.03 0.03 66 1005.3
20260508013237 5 274 0.0 0.0 0.00 0.03 0.03 65 1005.1
20260508012734 5 274 0.0 0.0 0.00 0.03 0.03 66 1005.3
20260508012231 5 274 0.0 0.0 0.00 0.03 0.03 65 1005.5
20260508011729 5 274 0.0 0.0 0.00 0.03 0.03 65 1005.2
20260508011226 5 274 0.0 0.0 0.00 0.03 0.03 67 1005.0
20260508010722 6 274 0.0 0.0 0.00 0.03 0.03 63 1005.0
20260508010221 6 274 0.0 0.0 0.00 0.03 0.03 62 1005.0
20260508005718 6 274 0.0 0.0 0.00 0.03 0.03 62 1004.7
20260508005215 6 274 0.0 0.0 0.00 0.03 0.03 61 1004.7
20260508004710 6 274 0.0 0.0 0.00 0.03 0.03 61 1004.9
20260508004207 6 274 0.0 0.0 0.00 0.03 0.03 60 1004.6
20260508003703 7 274 0.0 0.0 0.00 0.03 0.03 58 1004.3
20260508003201 7 274 0.0 0.0 0.00 0.03 0.03 57 1004.4
20260508002657 7 274 0.0 0.0 0.00 0.03 0.03 57 1004.5
20260508002155 7 274 0.0 0.0 0.00 0.03 0.03 56 1004.1
20260508001650 7 274 0.0 0.0 0.00 0.03 0.03 53 1004.1
20260508001146 8 274 0.0 0.0 0.00 0.03 0.03 51 1003.8
20260508000642 8 274 0.0 0.0 0.00 0.03 0.03 52 1004.0
20260508000139 8 274 0.0 0.0 0.00 0.03 0.03 48 1003.8
20260507235636 8 274 0.0 0.0 0.00 0.03 0.03 51 1004.1
20260507235134 9 274 0.0 0.0 0.00 0.03 0.03 48 1003.7
20260507234630 10 274 0.0 0.0 0.00 0.03 0.03 48 1003.8
20260507234127 11 274 0.0 0.0 0.00 0.03 0.03 42 1003.8
20260507233623 11 274 0.0 0.0 0.00 0.03 0.03 39 1003.7
20260507233122 11 274 0.0 1.6 0.00 0.03 0.03 39 1003.7
20260507232618 11 274 1.6 3.2 0.00 0.03 0.03 38 1003.6
20260507232116 12 274 0.0 3.2 0.00 0.03 0.03 39 1003.5
20260507231612 12 274 3.2 4.8 0.00 0.03 0.03 40 1003.4
20260507231109 12 274 0.0 3.2 0.00 0.03 0.03 39 1003.4
20260507230605 12 274 0.0 0.0 0.00 0.03 0.03 40 1003.1
20260507225557 12 274 0.0 1.6 0.00 0.03 0.03 37 1002.9
20260507225054 13 274 0.0 3.2 0.00 0.03 0.03 34 1003.1
20260507224549 13 274 1.6 6.4 0.00 0.03 0.03 30 1003.0
20260507224046 13 274 0.0 0.0 0.00 0.03 0.03 35 1003.0
20260507223542 13 274 1.6 1.6 0.00 0.03 0.03 32 1003.0
20260507223040 13 274 3.2 6.4 0.00 0.03 0.03 29 1002.6
20260507222537 13 274 0.0 3.2 0.00 0.03 0.03 30 1002.5
20260507222033 13 274 0.0 1.6 0.00 0.03 0.03 30 1002.8
20260507221529 13 274 1.6 4.8 0.00 0.03 0.03 34 1002.6
20260507221026 13 274 0.0 6.4 0.00 0.03 0.03 31 1002.8
20260507220524 13 274 0.0 0.0 0.00 0.03 0.03 33 1002.5
20260507220021 13 274 0.0 1.6 0.00 0.03 0.03 34 1002.6
20260507215517 13 274 1.6 6.4 0.00 0.03 0.03 30 1002.7
20260507215015 13 274 0.0 0.0 0.00 0.03 0.03 34 1002.5
20260507214512 14 274 1.6 3.2 0.00 0.03 0.03 29 1002.5
20260507214008 14 274 1.6 3.2 0.00 0.03 0.03 30 1002.6
20260507213504 15 274 1.6 4.8 0.00 0.03 0.03 30 1002.5
20260507213001 15 274 0.0 4.8 0.00 0.03 0.03 30 1002.6
20260507212457 15 274 0.0 6.4 0.00 0.03 0.03 28 1002.4
20260507211954 15 274 0.0 0.0 0.00 0.03 0.03 32 1002.6
20260507211450 15 274 3.2 3.2 0.00 0.03 0.03 27 1002.5
20260507210947 15 274 0.0 1.6 0.00 0.03 0.03 27 1002.5
20260507210444 15 274 1.6 6.4 0.00 0.03 0.03 30 1002.7
20260507205941 16 274 0.0 1.6 0.00 0.03 0.03 27 1002.5
20260507205438 15 274 0.0 4.8 0.00 0.03 0.03 29 1002.2
20260507204934 13 274 0.0 0.0 0.00 0.03 0.03 29 1002.4
20260507204431 14 274 0.0 0.0 0.00 0.03 0.03 29 1002.3
20260507203928 15 274 3.2 4.8 0.00 0.03 0.03 28 1002.4
20260507203426 15 274 1.6 9.7 0.00 0.03 0.03 27 1002.4
20260507202922 16 274 1.6 3.2 0.00 0.03 0.03 31 1002.2
20260507202419 16 274 0.0 4.8 0.00 0.03 0.03 26 1002.3
20260507201914 15 274 0.0 6.4 0.00 0.03 0.03 26 1002.2
20260507201410 15 274 0.0 9.7 0.00 0.03 0.03 27 1002.4
20260507200907 15 274 0.0 6.4 0.00 0.03 0.03 28 1002.1
20260507200403 15 274 3.2 4.8 0.00 0.03 0.03 27 1002.2
20260507195859 15 274 0.0 1.6 0.00 0.03 0.03 31 1002.3
20260507195356 15 274 0.0 1.6 0.00 0.03 0.03 29 1002.2
20260507194853 15 274 1.6 9.7 0.00 0.03 0.03 28 1002.2
20260507194350 14 274 1.6 3.2 0.00 0.03 0.03 32 1002.5
20260507193846 13 274 0.0 0.0 0.00 0.03 0.03 36 1002.6
20260507193344 14 274 1.6 9.7 0.00 0.03 0.03 31 1002.6
20260507192839 15 274 0.0 6.4 0.00 0.03 0.03 31 1002.5
20260507192336 15 274 1.6 9.7 0.00 0.03 0.03 30 1002.4
20260507191832 15 274 1.6 3.2 0.00 0.03 0.03 31 1002.6
20260507191329 15 274 0.0 3.2 0.00 0.03 0.03 30 1002.8
20260507190826 16 174 3.2 11.3 0.00 0.03 0.03 28 1003.0
20260507190324 16 174 3.2 12.9 0.00 0.03 0.03 29 1002.6
20260507185823 15 174 1.6 9.7 0.00 0.03 0.03 28 1002.7
20260507185319 15 174 0.0 4.8 0.00 0.03 0.03 29 1002.6
20260507184816 14 174 3.2 4.8 0.00 0.03 0.03 34 1002.6
20260507184314 15 174 3.2 3.2 0.00 0.03 0.03 33 1002.7
20260507183811 13 174 0.0 3.2 0.00 0.03 0.03 35 1002.7
20260507183308 14 174 1.6 4.8 0.00 0.03 0.03 34 1002.7
20260507182805 15 174 3.2 4.8 0.00 0.03 0.03 36 1002.5
20260507182300 15 174 0.0 1.6 0.00 0.03 0.03 37 1002.7
20260507181757 15 174 1.6 9.7 0.00 0.03 0.03 32 1002.9
20260507181253 15 174 3.2 6.4 0.00 0.03 0.03 32 1002.8
20260507180750 15 174 1.6 4.8 0.00 0.03 0.03 35 1002.7
20260507180247 14 174 1.6 6.4 0.00 0.03 0.03 41 1003.1
20260507175742 14 174 0.0 3.2 0.00 0.03 0.03 39 1003.2
20260507175240 15 174 1.6 6.4 0.00 0.03 0.03 39 1003.0
20260507174737 15 174 6.4 9.7 0.00 0.03 0.03 38 1002.8
20260507174235 14 174 4.8 6.4 0.00 0.03 0.03 34 1003.0
20260507173733 15 174 9.7 14.5 0.00 0.03 0.03 35 1003.1
20260507173229 15 174 4.8 9.7 0.00 0.03 0.03 34 1003.1
20260507172725 15 174 0.0 6.4 0.00 0.03 0.03 34 1003.1
20260507172222 14 174 0.0 6.4 0.00 0.03 0.03 43 1003.2
20260507171717 14 174 0.0 9.7 0.00 0.03 0.03 46 1003.1
20260507171215 14 174 1.6 6.4 0.00 0.03 0.03 47 1003.2
20260507170711 16 174 1.6 12.9 0.00 0.03 0.03 42 1003.3
20260507170208 16 174 4.8 6.4 0.00 0.03 0.03 38 1003.0
20260507165703 15 174 1.6 3.2 0.00 0.03 0.03 39 1003.2
20260507165159 14 174 3.2 6.4 0.00 0.03 0.03 43 1003.3
20260507164655 13 174 1.6 6.4 0.00 0.03 0.03 43 1003.3
20260507164148 15 174 0.0 6.4 0.00 0.03 0.03 44 1003.3
20260507163644 15 174 3.2 6.4 0.00 0.03 0.03 40 1003.4
20260507163143 15 174 1.6 4.8 0.00 0.03 0.03 41 1003.3
20260507162638 15 174 0.0 11.3 0.00 0.03 0.03 43 1003.3
20260507162135 15 174 0.0 1.6 0.00 0.03 0.03 41 1003.2
20260507161631 13 174 0.0 3.2 0.00 0.03 0.03 45 1003.4
20260507161127 13 174 6.4 6.4 0.00 0.03 0.03 44 1003.6
20260507160624 13 174 0.0 3.2 0.00 0.03 0.03 51 1003.8
20260507160121 13 174 1.6 4.8 0.00 0.03 0.03 49 1003.7
20260507155616 14 174 3.2 4.8 0.00 0.03 0.03 49 1003.6
20260507155113 15 174 0.0 6.4 0.00 0.03 0.03 49 1003.7
20260507154610 14 174 1.6 9.7 0.00 0.03 0.03 45 1003.8
20260507154107 13 174 3.2 4.8 0.00 0.03 0.03 48 1003.9
20260507153603 12 174 0.0 1.6 0.00 0.03 0.03 56 1003.9
20260507153100 13 174 1.6 3.2 0.00 0.03 0.03 49 1004.0
20260507152556 15 174 0.0 6.4 0.00 0.03 0.03 48 1003.8
20260507152052 13 174 0.0 4.8 0.00 0.03 0.03 54 1004.0